Volver al catálogo

THOR BURNER 2A R/B

ActivoSSO
NORAD 7412·ROCKET BODY·🇺🇸 United States

Lanzado Aug 9, 1974 desde Vandenberg Space Force Base

Loading…

Próximos Pases (próximas 24 horas)

TLE

ActualizadoSource: Space-Track

Época: Sep 14, 2026, 20:12 UTC

1 07412U 74063B   26257.84169012  .00000050  00000-0  40209-4 0  9991
2 07412  98.5826  96.5487 0046009  69.0990 291.5106 14.23771217701833

Sigue THOR BURNER 2A R/B en tiempo real con AllMySat

Download on the App Store